Alturas, CA

5:13 PM PDT on October 20, 2017 (GMT -0700)
Alturas Municipal

Weather History for KAAT - January, 2014

Change the Weather History Date:

Tuesday, January 21, 2014

  Actual Average Record
Temperature  
Mean Temperature 35 °F 30 °F  
Max Temperature 60 °F 42 °F 69 °F (1961)
Min Temperature 9 °F 18 °F -30 °F (1937)
Degree Days  
Heating Degree Days 30 35  
Month to date heating degree days 671 747  
Since 1 July heating degree days 3688 3657  
Cooling Degree Days 0 0  
Month to date cooling degree days 0 0  
Year to date cooling degree days 0 0  
Moisture  
Dew Point 8 °F    
Average Humidity 45    
Maximum Humidity 76    
Minimum Humidity 14    
Precipitation  
Precipitation 0.00 in 0.05 in 2.02 in (1943)
Month to date precipitation 0.02 1.23  
Year to date precipitation 0.02 1.23  
Sea Level Pressure  
Sea Level Pressure 30.39 in    
Wind  
Wind Speed 2 mph (NNW)    
Max Wind Speed 10 mph    
Max Gust Speed 12 mph    
Visibility 8 miles    
Events      
T = Trace of Precipitation, MM = Missing Value Source: NWS Daily Summary

Daily Weather History Graph

Daily Weather History Graph

Search for Another Location

Airport or City:

Trip Planner

Search our weather history database for the weather conditions in past years. The results will help you decide how hot, cold, wet, or windy it might be!

Date:

Astronomy

Jan. 21, 2014 Rise Set
Actual Time 7:22 AM PST 5:04 PM PST
Civil Twilight 6:52 AM PST 5:34 PM PST
Nautical Twilight 6:19 AM PST 6:08 PM PST
Astronomical Twilight 5:46 AM PST 6:41 PM PST
Moon 10:47 PM PST 9:51 AM PST
Length of Visible Light 10h 42m
Length of Day
9h 41m
Waning Gibbous, 73% of the Moon is Illuminated
Jan 21
Waning Gibbous
Jan 23
Last Quarter
Jan 30
New
Feb 6
First Quarter
Feb 14
Full

Hourly Weather History & Observations

Time (PST) Temp. Windchill Dew Point Humidity Pressure Visibility Wind Dir Wind Speed Gust Speed Precip Events Conditions
12:38 AM 12.9 °F - 6.1 °F 74% 30.36 in 2.5 mi Calm Calm - N/A   Haze
12:45 AM 15.1 °F - 6.1 °F 68% 30.35 in 4.0 mi Calm Calm - N/A   Haze
12:55 AM 17.1 °F - 8.1 °F 68% 30.39 in 4.0 mi Calm Calm - N/A   Haze
1:17 AM 16.0 °F - 7.0 °F 68% 30.35 in 2.5 mi Calm Calm - N/A   Haze
1:25 AM 18.0 °F - 8.1 °F 65% 30.35 in 3.0 mi Calm Calm - N/A   Haze
1:55 AM 14.0 °F 8.2 °F 3.9 °F 64% 30.39 in 4.0 mi NE 3.5 mph - N/A   Haze
2:55 AM 17.1 °F - 8.1 °F 68% 30.37 in 8.0 mi Calm Calm - N/A   Clear
3:55 AM 12.9 °F 6.9 °F 5.0 °F 71% 30.38 in 10.0 mi East 3.5 mph - N/A   Clear
4:55 AM 10.0 °F - 1.9 °F 70% 30.40 in 10.0 mi Calm Calm - N/A   Clear
5:55 AM 12.9 °F - 6.1 °F 74% 30.42 in 10.0 mi Calm Calm - N/A   Clear
6:55 AM 12.9 °F - 5.0 °F 71% 30.46 in 10.0 mi Calm Calm - N/A   Clear
7:55 AM 12.9 °F - 6.1 °F 74% 30.49 in 10.0 mi Calm Calm - N/A   Clear
8:55 AM 24.1 °F 19.7 °F 10.0 °F 55% 30.49 in 10.0 mi NNW 3.5 mph - N/A   Clear
9:55 AM 33.1 °F - 12.9 °F 43% 30.47 in 10.0 mi Calm Calm - N/A   Clear
10:55 AM 43.0 °F - 14.0 °F 31% 30.43 in 10.0 mi Calm Calm - N/A   Clear
11:55 AM 48.9 °F - 15.1 °F 26% 30.38 in 10.0 mi Variable 3.5 mph - N/A   Clear
12:55 PM 54.0 °F - 12.9 °F 20% 30.35 in 10.0 mi Calm Calm - N/A   Clear
1:55 PM 57.9 °F - 9.0 °F 14% 30.32 in 10.0 mi West 8.1 mph - N/A   Clear
2:55 PM 57.9 °F - 8.1 °F 14% 30.30 in 10.0 mi West 3.5 mph - N/A   Clear
3:55 PM 57.9 °F - 10.9 °F 16% 30.32 in 10.0 mi WNW 3.5 mph - N/A   Clear
4:55 PM 52.0 °F - 8.1 °F 17% 30.35 in 10.0 mi North 4.6 mph - N/A   Clear
5:55 PM 43.0 °F 40.3 °F 6.1 °F 22% 30.38 in 10.0 mi North 4.6 mph - N/A   Clear
6:55 PM 34.0 °F 27.2 °F 8.1 °F 34% 30.42 in 10.0 mi SE 8.1 mph - N/A   Clear
7:55 PM 28.9 °F - 9.0 °F 43% 30.44 in 6.0 mi Calm Calm - N/A   Haze
8:55 PM 25.0 °F - 9.0 °F 51% 30.42 in 9.0 mi Calm Calm - N/A   Clear
9:55 PM 21.0 °F - 5.0 °F 50% 30.41 in 9.0 mi Calm Calm - N/A   Clear
10:55 PM 19.9 °F - 8.1 °F 60% 30.39 in 10.0 mi Calm Calm - N/A   Clear
11:47 PM 17.1 °F - 7.0 °F 65% 30.33 in 2.5 mi Calm Calm - N/A   Haze
11:55 PM 15.1 °F - 5.0 °F 64% 30.38 in 4.0 mi Calm Calm - N/A   Haze